Location: Jonesport
(44.5330°N, 67.5990°W)
Time: 12:36:59
(UTC-04:00)

Iridium 35 - Visible Passes

Search period start: 28 August 2016 00:00
Search period end: 07 September 2016 00:00
Orbit: 776 x 779 km, 86.4° (Epoch: 28 August)

Date Brightness Start Highest point End Pass type
(mag) Time Alt. Az. Time Alt. Az. Time Alt. Az.
29 Aug 8.0 20:21:17 10° NW 20:24:37 17° WNW 20:27:55 10° WSW visible
30 Aug 7.3 19:46:53 10° NNW 19:51:23 30° W 19:55:52 10° SW visible
01 Sep 8.4 20:22:32 10° NW 20:24:29 12° WNW 20:26:25 10° W visible
02 Sep 7.9 19:47:27 10° NNW 19:51:20 22° W 19:55:12 10° SW visible
03 Sep 8.8 05:27:37 10° E 05:29:36 12° ENE 05:31:34 10° NE visible
05 Sep 8.3 19:48:17 10° NW 19:51:14 15° WNW 19:54:10 10° WSW visible
06 Sep 8.3 05:26:07 10° ESE 05:29:27 17° ENE 05:32:48 10° NE visible
